Location: LewisvilleTX
(33.0462°N, 96.9942°W)
Time: 06:33:32
(UTC+00:00)

N. Korean satellite - Pass Details

Date: 07 December 2021
Orbit: 447 x 491 km, 97.3° (Epoch: 22 January)

Event Time Altitude Azimuth Distance (km) Brightness Sun altitude
Rises 11:16:05 0° 20° (NNE) 2,450 10.2 -24.9°
Reaches altitude 10° 11:18:12 10° 28° (NNE) 1,575 9.3 -24.5°
Maximum altitude 11:21:24 39° 99° (E) 680 7.7 -23.8°
Drops below altitude 10° 11:24:34 10° 170° (S) 1,571 9.4 -23.2°
Sets 11:26:41 0° 178° (S) 2,444 10.3 -22.8°
